Lamoni, IA

12:27 PM CST on February 10, 2016 (GMT -0600)
Lamoni Municipal

Weather History for KLWD - January, 2015

Change the Weather History Date:

Tuesday, January 6, 2015

  Actual Average Record
Temperature  
Mean Temperature 10 °F 24 °F  
Max Temperature 18 °F 33 °F 55 °F (2012)
Min Temperature 2 °F 15 °F -14 °F (2014)
Degree Days  
Heating Degree Days 55 41  
Month to date heating degree days 279 246  
Since 1 July heating degree days 2665 2675  
Cooling Degree Days 0 0  
Month to date cooling degree days 0 0  
Year to date cooling degree days 0 0  
Moisture  
Dew Point 6 °F    
Average Humidity 81    
Maximum Humidity 95    
Minimum Humidity 67    
Precipitation  
Precipitation 0.01 in 0.03 in 0.10 in (1976)
Month to date precipitation 0.09 0.14  
Sea Level Pressure  
Sea Level Pressure 30.49 in    
Wind  
Wind Speed 12 mph (NW)    
Max Wind Speed 25 mph    
Max Gust Speed 32 mph    
Visibility 9 miles    
Events Snow    
T = Trace of Precipitation, MM = Missing Value Source: NWS Daily Summary

Daily Weather History Graph

Daily Weather History Graph

Search for Another Location

Airport or City:

Trip Planner

Search our weather history database for the weather conditions in past years. The results will help you decide how hot, cold, wet, or windy it might be!

Date:

Astronomy

Jan. 06, 2015 Rise Set
Actual Time 7:39 AM CST 5:03 PM CST
Civil Twilight 7:08 AM CST 5:34 PM CST
Nautical Twilight 6:34 AM CST 6:08 PM CST
Astronomical Twilight 6:01 AM CST 6:41 PM CST
Moon 6:54 PM CST (1/6) 8:16 AM CST (1/6)
Length of Visible Light 10h 25m
Length of Day
9h 24m
Full, 98% of the Moon is Illuminated
Jan 6
Full
Jan 13
Last Quarter
Jan 20
New
Jan 26
First Quarter
Feb 3
Full

Hourly Weather History & Observations

Time (CST) Temp. Windchill Dew Point Humidity Pressure Visibility Wind Dir Wind Speed Gust Speed Precip Events Conditions
12:19 AM 18.0 °F 12.7 °F 12.0 °F 78% 30.18 in 10.0 mi North 3.5 mph - N/A   Overcast
12:53 AM 18.0 °F 11.1 °F 12.0 °F 78% 30.27 in 10.0 mi North 4.6 mph - N/A   Overcast
1:38 AM 18.0 °F 7.7 °F 12.0 °F 78% 30.23 in 10.0 mi North 8.1 mph - N/A   Overcast
1:53 AM 18.0 °F 8.7 °F 12.0 °F 78% 30.31 in 10.0 mi North 6.9 mph - N/A   Overcast
2:53 AM 14.0 °F 2.0 °F 9.0 °F 80% 30.37 in 10.0 mi North 9.2 mph - N/A   Scattered Clouds
3:53 AM 9.0 °F -6.6 °F 6.1 °F 88% 30.42 in 10.0 mi North 12.7 mph - N/A   Clear
4:53 AM 7.0 °F -8.3 °F 3.9 °F 87% 30.45 in 10.0 mi North 11.5 mph - N/A   Clear
5:53 AM 6.1 °F -7.8 °F 3.0 °F 87% 30.50 in 10.0 mi NNW 9.2 mph - N/A   Clear
6:53 AM 3.9 °F -6.9 °F 1.0 °F 88% 30.56 in 10.0 mi NW 5.8 mph - N/A   Clear
7:53 AM 1.9 °F -11.8 °F -0.9 °F 88% 30.58 in 10.0 mi NW 8.1 mph - N/A   Clear
8:53 AM 5.0 °F -9.1 °F -0.0 °F 80% 30.61 in 10.0 mi WNW 9.2 mph - N/A   Clear
9:53 AM 8.1 °F -6.2 °F 1.9 °F 76% 30.61 in 10.0 mi NW 10.4 mph - N/A   Clear
10:53 AM 10.0 °F -1.9 °F 3.0 °F 73% 30.59 in 10.0 mi NNW 8.1 mph - N/A   Clear
11:53 AM 10.9 °F -2.6 °F 3.9 °F 73% 30.58 in 10.0 mi West 10.4 mph - N/A   Clear
12:53 PM 12.9 °F -1.6 °F 5.0 °F 71% 30.56 in 10.0 mi West 12.7 mph - N/A   Clear
1:53 PM 14.0 °F 2.9 °F 5.0 °F 67% 30.51 in 10.0 mi NW 8.1 mph - N/A   Clear
2:53 PM 15.1 °F 3.3 °F 6.1 °F 68% 30.50 in 10.0 mi WNW 9.2 mph - N/A   Clear
3:53 PM 15.1 °F 1.8 °F 6.1 °F 68% 30.52 in 10.0 mi West 11.5 mph - N/A   Mostly Cloudy
4:53 PM 15.1 °F 0.5 °F 6.1 °F 68% 30.51 in 10.0 mi West 13.8 mph - N/A   Overcast
5:53 PM 15.1 °F 1.8 °F 6.1 °F 68% 30.52 in 10.0 mi WNW 11.5 mph - N/A   Overcast
6:53 PM 15.1 °F 1.8 °F 7.0 °F 70% 30.52 in 10.0 mi West 11.5 mph - N/A   Overcast
7:53 PM 15.1 °F -0.1 °F 8.1 °F 74% 30.54 in 9.0 mi WNW 15.0 mph - 0.00 in   Overcast
8:53 PM 15.1 °F -0.6 °F 9.0 °F 77% 30.56 in 6.0 mi NW 16.1 mph - 0.00 in Snow Light Snow
9:53 PM 14.0 °F -4.3 °F 9.0 °F 80% 30.58 in 5.0 mi NW 21.9 mph 26.5 mph 0.00 in Snow Light Snow
10:04 PM 14.0 °F -5.5 °F 9.0 °F 80% 30.50 in 5.0 mi NNW 25.3 mph 31.1 mph 0.00 in Snow Light Snow
10:14 PM 12.9 °F -4.9 °F 7.0 °F 77% 30.51 in 7.0 mi NW 19.6 mph 31.1 mph 0.00 in Snow Light Snow
10:53 PM 12.9 °F -4.4 °F 5.0 °F 71% 30.61 in 10.0 mi NNW 18.4 mph 28.8 mph 0.01 in   Overcast
11:53 PM 12.0 °F -6.0 °F 1.9 °F 64% 30.63 in 10.0 mi North 19.6 mph 29.9 mph N/A   Mostly Cloudy